Tracking 19149 objects as of 22-Apr-2018
HD Live streaming from Space Station
objects crossing your sky now

FENGYUN 1C DEB

Track FENGYUN 1C DEB now!
10-day predictions


NORAD ID: 30949
Int'l Code: 1999-025BAP
Perigee: 774.1 km
Apogee: 947.0 km
Inclination: 98.8 °
Period: 102.0 minutes
Semi major axis: 7231 km
RCS: 0.012 m2 (small)
Launch date: May 10, 1999
Source: People's Republic of China (PRC)
Launch site: Taiyaun Space Center, China (TSC)

Note: This is SATELLITE DEBRIS
aabbcc
Your satellite tracking list
Your tracking list is empty




NASA's NSSDC Master Catalog

Two Line Element Set (TLE):
1 30949U 99025BAP 18111.91129722 +.00000063 +00000-0 +55035-4 0  9996
2 30949 098.8185 143.7879 0119547 332.9427 148.4046 14.11746724571065
Source of the keplerian elements: AFSPC